| time (UTC) | temp F | wind direction | speed MPH | gust MPH | rain 1hr in | rain 24hr in | rain mn in | humidity % | barometer mb |
| 20260831014528 | 56 | 221 | 0.0 | 0.0 | 0.00 | 0.00 | 0.00 | 88 | 1013.7 |
| 20260831013027 | 57 | 221 | 0.0 | 0.0 | 0.00 | 0.00 | 0.00 | 88 | 1013.7 |
| 20260831011526 | 57 | 221 | 0.0 | 0.0 | 0.00 | 0.00 | 0.00 | 87 | 1013.7 |
| 20260831010032 | 57 | 221 | 0.0 | 0.0 | 0.00 | 0.00 | 0.00 | 87 | 1014.1 |
| 20260831005658 | 58 | 0.0 | 0.0 | 0.00 | 0.00 | 0.00 | 87 | 1015.7 | |
| 20260831004521 | 57 | 221 | 0.0 | 0.0 | 0.00 | 0.00 | 0.00 | 87 | 1014.1 |
| 20260831003021 | 57 | 221 | 0.0 | 0.0 | 0.00 | 0.00 | 0.00 | 87 | 1014.3 |
| 20260831001519 | 58 | 221 | 0.0 | 0.0 | 0.00 | 0.00 | 0.00 | 86 | 1014.4 |
| 20260831000023 | 58 | 221 | 0.0 | 0.0 | 0.00 | 0.00 | 0.00 | 85 | 1014.4 |
| 20260830235728 | 59 | 0.0 | 0.0 | 0.00 | 0.00 | 0.00 | 85 | 1016.0 | |
| 20260830234529 | 58 | 221 | 0.0 | 0.0 | 0.00 | 0.00 | 0.00 | 85 | 1014.5 |
| 20260830233013 | 59 | 221 | 0.0 | 0.0 | 0.00 | 0.00 | 0.00 | 84 | 1014.5 |
| 20260830231511 | 59 | 221 | 0.0 | 0.0 | 0.00 | 0.00 | 0.00 | 84 | 1014.6 |
| 20260830230018 | 59 | 221 | 0.0 | 0.0 | 0.00 | 0.00 | 0.00 | 83 | 1014.7 |
| 20260830225755 | 60 | 0.0 | 0.0 | 0.00 | 0.00 | 0.00 | 83 | 1016.2 | |
| 20260830224506 | 60 | 221 | 0.0 | 0.0 | 0.00 | 0.00 | 0.00 | 82 | 1014.6 |
| 20260830223004 | 61 | 221 | 0.0 | 0.0 | 0.00 | 0.00 | 0.00 | 82 | 1014.7 |
| 20260830221504 | 61 | 221 | 0.0 | 0.0 | 0.00 | 0.00 | 0.00 | 81 | 1014.6 |
| 20260830220100 | 62 | 221 | 0.0 | 0.0 | 0.00 | 0.00 | 0.00 | 79 | 1014.7 |
| 20260830215700 | 63 | 0.0 | 0.0 | 0.00 | 0.00 | 0.00 | 79 | 1016.3 | |
| 20260830214600 | 63 | 221 | 0.0 | 0.0 | 0.00 | 0.00 | 0.00 | 78 | 1014.7 |
| 20260830213058 | 64 | 221 | 0.0 | 0.0 | 0.00 | 0.00 | 0.00 | 77 | 1014.8 |
| 20260830211558 | 65 | 221 | 0.0 | 0.0 | 0.00 | 0.00 | 0.00 | 76 | 1014.6 |
| 20260830210058 | 65 | 221 | 0.0 | 0.0 | 0.00 | 0.00 | 0.00 | 77 | 1014.6 |
| 20260830205630 | 65 | 0.0 | 0.0 | 0.00 | 0.00 | 0.00 | 77 | 1016.3 | |
| 20260830204604 | 65 | 221 | 0.0 | 0.0 | 0.00 | 0.00 | 0.00 | 77 | 1014.7 |
| 20260830203056 | 65 | 221 | 0.0 | 0.0 | 0.00 | 0.00 | 0.00 | 78 | 1014.7 |
| 20260830201610 | 65 | 221 | 0.0 | 0.0 | 0.00 | 0.00 | 0.00 | 78 | 1014.7 |
| 20260830200100 | 65 | 221 | 0.0 | 0.0 | 0.00 | 0.00 | 0.00 | 77 | 1014.7 |
| 20260830195712 | 67 | 0.0 | 0.0 | 0.00 | 0.00 | 0.00 | 75 | 1016.1 | |
| 20260830194607 | 66 | 221 | 0.0 | 0.0 | 0.00 | 0.00 | 0.00 | 75 | 1014.7 |
| 20260830193107 | 67 | 221 | 0.0 | 0.0 | 0.00 | 0.00 | 0.00 | 73 | 1014.7 |
| 20260830191600 | 68 | 221 | 0.0 | 0.0 | 0.00 | 0.00 | 0.00 | 73 | 1014.7 |
| 20260830190054 | 68 | 221 | 0.0 | 3.0 | 0.00 | 0.00 | 0.00 | 72 | 1014.7 |
| 20260830185642 | 69 | 225 | 1.0 | 3.0 | 0.00 | 0.00 | 0.00 | 71 | 1016.1 |
| 20260830184552 | 68 | 221 | 1.0 | 2.0 | 0.00 | 0.00 | 0.00 | 71 | 1014.6 |
| 20260830183052 | 69 | 221 | 0.0 | 2.0 | 0.00 | 0.00 | 0.00 | 70 | 1014.4 |
| 20260830181555 | 69 | 221 | 0.0 | 0.0 | 0.00 | 0.00 | 0.00 | 71 | 1014.3 |
| 20260830180058 | 70 | 221 | 0.0 | 1.0 | 0.00 | 0.00 | 0.00 | 71 | 1014.2 |
| 20260830175608 | 71 | 0.0 | 0.0 | 0.00 | 0.00 | 0.00 | 70 | 1015.5 | |
| 20260830174556 | 71 | 221 | 0.0 | 3.0 | 0.00 | 0.00 | 0.00 | 70 | 1014.0 |
| 20260830173104 | 71 | 221 | 3.0 | 6.0 | 0.00 | 0.00 | 0.00 | 69 | 1014.1 |
| 20260830171550 | 72 | 221 | 1.0 | 5.0 | 0.00 | 0.00 | 0.00 | 68 | 1014.1 |
| 20260830170050 | 72 | 209 | 2.0 | 6.0 | 0.00 | 0.00 | 0.00 | 67 | 1014.0 |
| 20260830165646 | 73 | 225 | 4.0 | 5.0 | 0.00 | 0.00 | 0.00 | 65 | 1015.5 |
| 20260830164558 | 73 | 215 | 4.0 | 9.0 | 0.00 | 0.00 | 0.00 | 65 | 1013.9 |
| 20260830163104 | 73 | 217 | 4.0 | 8.0 | 0.00 | 0.00 | 0.00 | 64 | 1014.0 |
| 20260830161548 | 74 | 215 | 6.0 | 10.0 | 0.00 | 0.00 | 0.00 | 64 | 1014.0 |
| 20260830160047 | 75 | 214 | 4.0 | 11.0 | 0.00 | 0.00 | 0.00 | 63 | 1014.1 |
| 20260830155718 | 76 | 203 | 4.0 | 6.0 | 0.00 | 0.00 | 0.00 | 63 | 1015.7 |
| 20260830154547 | 75 | 209 | 3.0 | 12.0 | 0.00 | 0.00 | 0.00 | 62 | 1014.0 |
| 20260830153043 | 75 | 211 | 5.0 | 10.0 | 0.00 | 0.00 | 0.00 | 61 | 1014.1 |
| 20260830151543 | 76 | 203 | 5.0 | 10.0 | 0.00 | 0.00 | 0.00 | 60 | 1014.1 |
| 20260830150044 | 77 | 196 | 4.0 | 12.0 | 0.00 | 0.00 | 0.00 | 61 | 1014.1 |
| 20260830145706 | 77 | 270 | 1.0 | 2.0 | 0.00 | 0.00 | 0.00 | 62 | 1016.0 |
| 20260830144541 | 76 | 201 | 7.0 | 12.0 | 0.00 | 0.00 | 0.00 | 60 | 1014.2 |
| 20260830143041 | 77 | 200 | 8.0 | 15.0 | 0.00 | 0.00 | 0.00 | 58 | 1014.2 |
| 20260830141540 | 77 | 202 | 8.0 | 13.0 | 0.00 | 0.00 | 0.00 | 59 | 1014.3 |
| 20260830140039 | 79 | 201 | 5.0 | 10.0 | 0.00 | 0.00 | 0.00 | 56 | 1014.2 |
| 20260830135613 | 79 | 203 | 8.0 | 12.0 | 0.00 | 0.00 | 0.00 | 57 | 1016.1 |
| 20260830134538 | 79 | 191 | 9.0 | 13.0 | 0.00 | 0.00 | 0.00 | 55 | 1014.3 |
| 20260830133036 | 79 | 199 | 6.0 | 16.0 | 0.00 | 0.00 | 0.00 | 56 | 1014.5 |
| 20260830131538 | 78 | 263 | 4.0 | 11.0 | 0.00 | 0.00 | 0.00 | 58 | 1014.5 |
| 20260830130034 | 78 | 200 | 6.0 | 15.0 | 0.00 | 0.00 | 0.00 | 56 | 1014.5 |
| 20260830125543 | 78 | 203 | 3.0 | 5.0 | 0.00 | 0.00 | 0.00 | 59 | 1016.3 |
| 20260830124530 | 77 | 206 | 2.0 | 15.0 | 0.00 | 0.00 | 0.00 | 59 | 1014.6 |
| 20260830123030 | 77 | 200 | 5.0 | 15.0 | 0.00 | 0.00 | 0.00 | 61 | 1014.6 |
| 20260830121530 | 78 | 211 | 7.0 | 13.0 | 0.00 | 0.00 | 0.00 | 59 | 1014.6 |
| 20260830120028 | 78 | 190 | 6.0 | 17.0 | 0.00 | 0.00 | 0.00 | 58 | 1014.6 |
| 20260830115622 | 78 | 203 | 4.0 | 7.0 | 0.00 | 0.00 | 0.00 | 61 | 1016.4 |
| 20260830114525 | 77 | 190 | 4.0 | 11.0 | 0.00 | 0.00 | 0.00 | 61 | 1014.6 |
| 20260830113024 | 76 | 198 | 8.0 | 15.0 | 0.00 | 0.00 | 0.00 | 59 | 1014.7 |
| 20260830111523 | 77 | 202 | 8.0 | 15.0 | 0.00 | 0.00 | 0.00 | 59 | 1014.8 |
| 20260830110021 | 76 | 208 | 9.0 | 16.0 | 0.00 | 0.00 | 0.00 | 58 | 1014.8 |
| 20260830105550 | 75 | 203 | 2.0 | 4.0 | 0.00 | 0.00 | 0.00 | 62 | 1016.6 |
| 20260830104518 | 74 | 261 | 3.0 | 10.0 | 0.00 | 0.00 | 0.00 | 62 | 1014.9 |
| 20260830103025 | 75 | 249 | 5.0 | 13.0 | 0.00 | 0.00 | 0.00 | 63 | 1015.0 |
| 20260830101516 | 75 | 277 | 2.0 | 7.0 | 0.00 | 0.00 | 0.00 | 64 | 1015.0 |
| 20260830100014 | 74 | 199 | 4.0 | 12.0 | 0.00 | 0.00 | 0.00 | 63 | 1015.1 |
| 20260830095546 | 74 | 203 | 5.0 | 9.0 | 0.00 | 0.00 | 0.00 | 65 | 1016.9 |
| 20260830094511 | 73 | 216 | 7.0 | 14.0 | 0.00 | 0.00 | 0.00 | 64 | 1015.2 |
| 20260830093008 | 73 | 222 | 3.0 | 13.0 | 0.00 | 0.00 | 0.00 | 66 | 1015.3 |
| 20260830091510 | 72 | 205 | 8.0 | 16.0 | 0.00 | 0.00 | 0.00 | 65 | 1015.2 |
| 20260830090004 | 71 | 202 | 7.0 | 13.0 | 0.00 | 0.00 | 0.00 | 67 | 1015.3 |
| 20260830085620 | 71 | 270 | 2.0 | 6.0 | 0.00 | 0.00 | 0.00 | 68 | 1016.9 |
| 20260830084502 | 71 | 190 | 5.0 | 12.0 | 0.00 | 0.00 | 0.00 | 68 | 1015.4 |
| 20260830083001 | 71 | 220 | 5.0 | 13.0 | 0.00 | 0.00 | 0.00 | 70 | 1015.3 |
| 20260830081559 | 70 | 209 | 3.0 | 9.0 | 0.00 | 0.00 | 0.00 | 71 | 1015.5 |
| 20260830080054 | 69 | 207 | 4.0 | 9.0 | 0.00 | 0.00 | 0.00 | 73 | 1015.4 |
| 20260830075557 | 68 | 180 | 3.0 | 4.0 | 0.00 | 0.00 | 0.00 | 76 | 1016.9 |
| 20260830074550 | 67 | 175 | 2.0 | 8.0 | 0.00 | 0.00 | 0.00 | 76 | 1015.5 |
| 20260830073049 | 66 | 211 | 2.0 | 6.0 | 0.00 | 0.00 | 0.00 | 78 | 1015.7 |
| 20260830071544 | 65 | 194 | 2.0 | 6.0 | 0.00 | 0.00 | 0.00 | 78 | 1015.7 |
| 20260830070041 | 64 | 210 | 4.0 | 9.0 | 0.00 | 0.00 | 0.00 | 79 | 1015.6 |
| 20260830065527 | 64 | 203 | 2.0 | 2.0 | 0.00 | 0.00 | 0.00 | 81 | 1016.7 |
| 20260830064538 | 64 | 213 | 2.0 | 6.0 | 0.00 | 0.00 | 0.00 | 81 | 1015.3 |
| 20260830063035 | 63 | 206 | 1.0 | 3.0 | 0.00 | 0.00 | 0.00 | 82 | 1015.2 |
| 20260830061533 | 62 | 214 | 2.0 | 4.0 | 0.00 | 0.00 | 0.00 | 82 | 1015.4 |
| 20260830060033 | 62 | 215 | 1.0 | 6.0 | 0.00 | 0.00 | 0.00 | 82 | 1015.4 |
| 20260830055452 | 62 | 180 | 3.0 | 4.0 | 0.00 | 0.00 | 0.00 | 81 | 1016.6 |
| 20260830054530 | 62 | 194 | 2.0 | 5.0 | 0.00 | 0.00 | 0.00 | 81 | 1015.3 |
| 20260830053028 | 61 | 199 | 1.0 | 3.0 | 0.00 | 0.00 | 0.00 | 82 | 1015.2 |
| 20260830051528 | 61 | 186 | 1.0 | 3.0 | 0.00 | 0.00 | 0.00 | 83 | 1015.1 |
| 20260830050027 | 61 | 186 | 0.0 | 2.0 | 0.00 | 0.00 | 0.00 | 83 | 1015.1 |
| 20260830045522 | 62 | 180 | 1.0 | 2.0 | 0.00 | 0.00 | 0.00 | 82 | 1016.4 |
| 20260830044526 | 61 | 186 | 0.0 | 3.0 | 0.00 | 0.01 | 0.00 | 82 | 1015.0 |
| 20260830043026 | 61 | 186 | 1.0 | 3.0 | 0.00 | 0.01 | 0.00 | 81 | 1015.0 |
| 20260830041526 | 61 | 154 | 1.0 | 4.0 | 0.00 | 0.01 | 0.00 | 81 | 1015.0 |
| 20260830040025 | 61 | 186 | 0.0 | 4.0 | 0.00 | 0.01 | 0.00 | 82 | 1015.2 |
| 20260830035445 | 61 | 0.0 | 1.0 | 0.00 | 0.01 | 0.00 | 83 | 1016.7 | |
| 20260830034522 | 61 | 171 | 0.0 | 2.0 | 0.00 | 0.01 | 0.00 | 83 | 1015.2 |
| 20260830033022 | 61 | 171 | 0.0 | 2.0 | 0.00 | 0.01 | 0.00 | 83 | 1015.1 |
| 20260830031521 | 61 | 171 | 0.0 | 2.0 | 0.00 | 0.01 | 0.00 | 83 | 1014.9 |
| 20260830030022 | 61 | 171 | 0.0 | 0.0 | 0.00 | 0.01 | 0.00 | 83 | 1014.9 |
| 20260830025521 | 61 | 0.0 | 0.0 | 0.00 | 0.01 | 0.00 | 83 | 1016.4 | |
| 20260830024519 | 61 | 171 | 0.0 | 0.0 | 0.00 | 0.01 | 0.00 | 83 | 1014.8 |
| 20260830023018 | 60 | 171 | 0.0 | 0.0 | 0.00 | 0.01 | 0.00 | 84 | 1014.8 |
| 20260830021518 | 60 | 171 | 0.0 | 0.0 | 0.00 | 0.01 | 0.00 | 84 | 1014.8 |
| 20260830020025 | 60 | 171 | 0.0 | 1.0 | 0.00 | 0.01 | 0.00 | 85 | 1014.8 |
| 20260830015450 | 61 | 0.0 | 0.0 | 0.00 | 0.01 | 0.00 | 85 | 1016.3 |